Flag for Syria Weather past 2 weeks in Damascus, Syria

Now
64 °F

Clear.


Feels Like: 64 °F
Forecast: 57 / 91 °F
Wind: 5 mph from Southwest

Location: Damascus Int. Airport

Current Time: Sep 24, 2014 at 7:38:09 AM

Latest Report: Sep 24, 2014 at 7:00 AM


Visibility: 10 mi

Pressure: 30.04 "Hg

Humidity: 78%

Dew point: 57 °F

Location of DamascusLocation

Historic Weather in Damascus — Graph

°F

Damascus temperature yesterday

Maximum temperature yesterday: 88 °F (at 3:00 PM)
Minimum temperature yesterday: 59 °F (at 7:00 AM)
Average temperature yesterday: 74 °F

Past Weeks' High & Low Weather Summary

 TemperatureHumidityPressure
High93 °F (Sep 9, 4:00 PM)88% (Sep 9, 6:00 AM)30.07 "Hg (Sep 9, 6:00 AM)
Low55 °F (Sep 10, 6:00 AM)13% (Sep 12, 4:00 PM)29.71 "Hg (Sep 19, 5:00 AM)
Average74 °F52%29.93 "Hg
* Reported Sep 9 6:00 AM — Sep 24 6:00 AM, Damascus, Weather by CustomWeather, © 2014

Note: Actual official high and low records may vary slightly from our data, if they occured in-between our weather recording intervals... More about our weather records

Advertising

Damascus weather history for previous 24 hours

 ConditionsComfort  
Time TempWeatherWind HumidityBarometerVisibility
6:00 AM
Sep 24
64 °FClear.9 mph83%30.04 "Hg10 mi
5:00 AM64 °FClear.7 mph88%30.01 "Hg10 mi
4:00 AM66 °FClear.7 mph78%30.01 "Hg10 mi
3:00 AM68 °FClear.9 mph73%30.01 "Hg10 mi
2:00 AM70 °FClear.12 mph69%30.01 "Hg10 mi
1:00 AM70 °FClear.14 mph64%30.01 "Hg10 mi
12:00 AM72 °FClear.14 mph61%30.01 "Hg10 mi
11:00 PM
Sep 23
73 °FClear.9 mph61%30.01 "Hg10 mi
10:00 PM75 °FClear.12 mph54%30.01 "Hg10 mi
9:00 PM77 °FClear.7 mph51%30.01 "Hg10 mi
8:00 PM79 °FClear.12 mph48%29.98 "Hg10 mi
7:00 PM82 °FSunny.14 mph40%29.95 "Hg10 mi
6:00 PM86 °FSunny.7 mph22%29.95 "Hg10 mi
5:00 PM86 °FSunny.No wind22%29.95 "Hg10 mi
4:00 PM88 °FSunny.5 mph18%29.95 "Hg10 mi
3:00 PM88 °FSunny.7 mph18%29.95 "Hg10 mi
2:00 PM84 °FSunny.5 mph23%29.98 "Hg10 mi
1:00 PM82 °FSunny.No wind26%29.98 "Hg10 mi
12:00 PM81 °FSunny.7 mph34%30.01 "Hg10 mi
11:00 AM75 °FSunny.7 mph54%30.01 "Hg10 mi
10:00 AM73 °FSunny.5 mph57%30.04 "Hg10 mi
9:00 AM68 °FSunny.No wind64%30.04 "Hg10 mi
8:00 AM64 °FSunny.No wind83%30.01 "Hg10 mi
7:00 AM59 °FClear.No wind82%29.98 "Hg10 mi
Weather by CustomWeather, © 2014

See weather overviewHow to use our weather pages